Temperature
16 16 16 16 15 15 15 15 15 15 15 15 15 15 15 15 15 15 15 14 14 14 14 14 14 14 14 14 14 14 14 14 13 13 12 12 12 12 12 12 12 12 12
16 16 15 15 15 15 15 15 15 15 15 15 15 15 15 15 15 15 15 14 14 14 14 14 14 14 14 14 14 14 14 13 13 13 12 12 12 12 12 12 11 11 11
16 16 15 15 15 15 15 15 15 15 15 15 15 15 15 15 15 15 15 14 14 14 14 14 14 14 14 14 14 13 13 13 13 13 12 12 12 12 12 11 11 11 11
16 16 16 15 16 15 15 15 15 15 15 15 15 15 15 15 15 15 15 14 14 14 14 14 14 14 13 13 13 13 13 13 13 12 12 12 12 12 11 11 11 11 10
16 15 16 15 15 15 15 15 15 15 15 15 15 15 15 15 15 14 14 14 14 14 14 14 14 14 14 13 13 13 13 13 13 12 12 12 11 11 11 11 11 10 10
16 15 15 15 15 15 15 15 15 15 15 15 15 15 15 15 15 15 14 14 14 14 14 14 14 14 14 13 13 13 13 13 12 12 12 12 11 11 11 11 10 10 10
16 15 15 15 15 15 15 15 15 15 15 15 15 15 15 15 15 14 14 14 14 14 14 14 14 13 13 13 13 13 13 13 13 12 12 11 11 11 11 10 10 10 10
16 15 15 15 15 15 15 15 15 15 15 15 15 14 14 14 14 14 14 14 14 14 14 13 13 13 13 13 13 13 12 12 12 12 12 11 11 11 11 11 10 10 10
16 16 15 15 15 15 15 15 15 14 14 14 14 14 14 14 14 14 14 14 14 14 13 13 13 13 13 13 12 12 12 12 12 12 12 11 11 11 11 11 10 10 9
16 16 15 15 15 15 15 15 15 15 14 14 14 14 14 14 14 14 14 13 13 13 13 13 13 13 13 13 12 12 12 11 11 11 11 11 11 11 11 10 10 9 9
16 15 15 15 15 15 15 15 15 14 14 14 14 14 14 14 14 14 14 13 13 13 13 13 13 13 13 13 12 12 12 11 11 11 11 10 10 10 10 10 10 9 9
16 16 15 15 15 15 15 15 15 14 14 14 14 13 13 13 13 14 13 13 13 13 13 13 13 13 13 12 12 12 12 11 11 10 10 10 10 10 10 9 9 9 9
16 16 15 15 15 15 15 15 14 14 14 14 13 13 13 13 13 13 13 13 13 13 13 13 13 12 12 12 12 12 11 11 10 10 10 10 10 9 9 9 9 8 8
15 15 15 15 15 15 15 14 14 14 14 14 13 13 13 13 13 13 13 13 13 13 13 13 12 12 12 12 11 11 11 11 10 10 10 9 9 9 9 8 8 8 7
15 15 15 15 15 15 15 14 14 14 14 14 13 13 13 13 13 13 13 13 13 13 12 12 12 12 11 11 11 11 11 10 10 10 9 9 9 8 8 8 8 7 7
15 15 15 15 15 14 14 14 14 14 14 13 13 13 13 13 13 13 13 13 12 12 12 12 11 11 11 11 11 11 10 10 10 10 9 9 8 8 8 7 7 7 6
15 15 14 14 14 14 14 14 14 13 13 13 13 13 13 13 13 13 12 12 12 12 11 11 11 11 11 11 10 10 10 10 10 9 9 9 8 8 7 7 7 6 6
14 14 14 14 14 14 14 14 14 13 13 13 13 13 13 13 12 12 12 12 12 11 11 11 11 11 11 10 10 10 10 10 9 9 9 8 8 7 7 7 6 6 5
14 14 14 14 14 14 14 13 13 13 13 12 12 12 12 12 12 12 12 11 11 11 11 11 10 10 10 10 10 10 9 9 9 9 8 8 8 7 7 6 6 5 5
14 14 14 14 14 14 13 13 13 12 12 12 12 12 12 12 12 11 11 11 11 10 10 10 10 10 10 10 9 9 9 9 9 8 8 8 7 7 6 6 5 5 4
14 14 14 14 14 13 13 13 13 12 12 12 12 12 12 12 11 11 11 10 10 10 10 10 10 10 9 9 9 9 9 8 8 8 8 7 7 6 6 5 5 4 4
14 14 14 13 13 13 13 13 12 12 12 12 12 12 11 11 11 11 10 10 10 10 10 9 9 9 9 9 9 8 8 8 8 8 7 7 6 6 5 5 4 4 3
13 13 13 13 13 13 13 12 12 12 11 11 11 11 11 10 10 10 10 10 9 9 9 9 9 9 9 8 8 8 8 8 7 7 7 6 6 5 5 4 4 3 3
13 13 13 13 12 12 12 12 12 12 11 11 11 11 10 10 10 10 9 9 9 9 9 9 8 8 8 8 8 7 7 7 7 7 6 6 5 5 4 4 3 3 3
12 12 12 12 12 12 12 11 11 11 11 11 10 10 10 10 10 9 9 9 9 9 8 8 8 8 8 7 7 7 7 7 6 6 6 5 5 4 4 4 3 2 2
12 12 12 12 12 11 11 11 11 11 10 10 10 10 10 10 9 9 9 9 9 8 8 8 8 7 7 7 7 6 6 6 6 5 5 5 4 4 4 3 3 2 2
Wind_Speed
8 8 7 6 7 6 5 5 5 5 5 5 4 5 5 5 4 4 3 2 2 3 3 3 3 2 2 2 2 2 2 2 3 4 3 4 4 4 5 5 6 7 10
8 8 8 7 7 7 6 5 6 5 5 5 5 5 5 4 4 4 4 3 2 2 3 3 3 3 3 3 2 2 2 2 2 4 4 3 3 4 3 4 4 6 7
8 8 8 8 8 7 7 6 6 6 6 6 6 5 5 5 5 4 4 4 3 3 3 3 3 3 3 3 3 3 3 3 3 3 4 3 2 3 3 3 4 4 5
9 9 9 8 8 7 7 7 6 7 6 6 6 5 5 5 5 5 5 4 4 4 4 3 3 3 3 3 3 3 3 3 3 3 3 3 2 2 1 2 2 2 2
9 9 8 7 7 7 7 7 7 7 7 6 6 6 5 4 4 5 5 4 4 5 4 4 4 5 6 3 2 3 3 3 3 3 2 2 2 1 1 1 1 1 2
9 9 8 8 8 7 7 7 7 7 7 7 7 6 5 4 4 2 3 5 5 5 5 5 5 5 6 5 6 5 3 2 2 3 2 2 1 1 1 0 0 0 1
10 9 8 8 8 8 7 8 7 8 7 7 6 6 5 5 7 6 4 3 4 4 4 4 4 4 5 5 6 6 4 3 2 1 2 1 1 1 0 0 0 1 1
10 9 9 8 8 8 8 8 8 7 7 7 7 6 6 6 8 7 6 5 4 4 4 4 4 4 4 4 5 4 3 3 2 1 2 2 2 2 0 1 0 0 1
9 9 9 9 9 9 8 8 7 7 7 7 7 7 6 7 9 8 7 5 4 4 3 3 4 4 5 4 4 4 4 4 5 5 6 6 7 6 3 0 0 1 0
9 9 9 9 9 9 9 8 7 7 6 6 6 6 7 6 9 8 7 5 5 4 4 4 3 3 6 5 5 4 4 4 4 5 4 4 3 4 2 1 1 1 1
8 8 8 9 9 9 8 7 7 7 7 6 6 6 6 6 8 8 7 6 5 5 4 4 4 7 6 4 3 3 2 2 3 3 3 3 2 2 2 2 2 2 2
8 8 8 8 8 8 8 8 8 8 7 7 6 6 5 5 5 7 7 6 4 5 4 4 5 10 8 5 4 4 5 3 3 3 3 2 2 2 2 3 3 3 3
8 9 8 8 8 8 9 9 8 8 7 7 6 6 5 5 5 7 7 6 5 4 3 5 7 9 8 6 5 5 5 3 3 3 2 2 2 2 2 2 2 2 3
9 8 8 8 8 8 7 7 7 7 8 7 7 7 6 5 5 6 6 6 7 6 5 7 8 6 4 4 6 5 3 2 3 2 2 2 2 2 2 1 1 1 1
8 8 8 8 8 8 7 6 7 7 7 7 7 7 7 7 6 7 7 7 7 7 7 6 5 5 5 4 4 4 3 3 3 2 2 2 2 2 1 1 1 1 1
8 7 7 7 7 7 7 5 2 2 4 5 4 5 5 5 7 9 8 7 8 10 8 6 6 6 5 5 5 4 4 3 3 3 3 3 2 2 1 1 1 1 2
9 8 7 7 7 7 7 7 5 3 3 4 5 5 5 7 9 9 9 9 9 10 6 6 6 5 5 5 5 4 4 4 3 3 3 3 2 2 2 2 1 1 1
8 7 7 7 7 7 7 7 6 6 5 4 3 5 7 9 9 10 11 9 6 6 5 5 5 5 5 5 5 4 4 4 4 4 3 3 3 2 2 2 1 2 2
8 7 7 7 7 7 7 7 7 7 6 5 4 5 6 8 8 9 10 6 6 6 5 5 5 5 5 4 4 4 4 4 4 3 3 3 3 2 2 2 2 2 2
7 7 7 7 7 7 7 7 7 7 6 6 6 6 6 6 5 6 6 5 5 5 5 5 5 4 4 4 4 4 4 4 4 3 3 3 3 3 2 2 2 2 2
6 7 8 7 7 7 7 7 7 7 7 6 6 7 9 7 6 7 6 6 5 5 5 5 5 4 4 4 4 5 5 4 4 3 3 3 3 3 2 2 2 2 2
6 7 7 7 7 7 7 7 7 7 7 7 6 6 8 6 6 6 5 5 5 5 5 4 4 4 5 5 5 5 4 4 4 3 3 3 3 3 2 2 2 2 2
6 7 7 7 7 7 7 7 7 7 7 7 7 6 7 6 5 5 5 5 5 5 5 5 4 4 4 4 5 4 4 4 4 5 4 4 3 3 3 3 2 2 2
6 7 7 7 7 7 7 7 7 7 7 7 7 6 6 6 5 5 5 5 5 5 5 5 5 6 6 5 4 4 4 5 5 5 5 4 3 3 3 2 2 2 2
6 7 7 7 7 7 7 7 7 7 7 7 6 6 6 6 6 6 5 5 6 5 6 6 6 6 7 7 6 6 6 6 5 5 5 4 4 3 3 3 2 2 2
6 7 6 6 6 7 7 7 7 7 7 6 6 6 6 6 6 6 6 6 6 6 6 6 6 7 7 7 7 8 9 9 8 6 5 4 4 3 3 2 3 2 2
Wind_Direction
186 184 186 187 181 176 175 178 182 174 174 176 176 171 167 165 161 153 154 150 157 141 135 123 111 102 114 107 103 92 77 83 113 108 97 90 81 72 76 75 75 73 71
184 185 190 182 182 179 176 180 185 179 176 179 174 173 169 164 158 152 153 157 151 143 134 127 124 125 118 106 101 97 90 89 122 118 111 95 77 73 69 74 79 76 75
184 186 188 183 186 185 181 181 185 177 178 180 176 173 168 164 159 157 155 150 141 133 127 125 131 136 132 115 109 104 101 101 104 123 112 99 90 81 81 79 85 80 78
183 186 186 185 188 190 183 181 182 180 181 180 178 175 170 165 164 160 155 148 138 129 126 122 121 127 127 124 123 116 114 114 112 119 118 116 100 82 93 88 91 92 70
183 185 185 185 183 183 179 178 181 180 181 179 178 177 170 168 168 169 162 154 148 138 132 124 109 86 58 65 89 117 127 131 129 124 119 112 97 82 52 41 85 85 80
184 184 179 182 177 178 179 179 180 178 178 176 180 176 167 163 131 146 184 166 160 152 147 139 130 126 112 98 76 65 58 114 131 133 129 128 103 80 44 347 26 317 72
184 181 178 180 177 178 175 177 177 177 174 175 178 172 170 153 143 159 189 180 172 165 160 151 141 141 152 144 134 133 103 58 22 86 118 91 75 52 342 225 353 358 26
183 180 178 178 175 175 175 176 178 178 175 177 176 170 167 157 150 160 176 182 171 168 168 164 164 162 160 159 147 138 126 113 112 116 91 65 44 34 4 327 331 74 88
183 181 179 178 176 176 178 179 178 177 177 178 174 176 178 170 159 167 183 175 173 170 167 166 175 172 134 165 167 156 144 128 98 85 68 74 64 49 22 89 137 222 327
186 184 180 178 176 178 179 178 175 175 176 176 174 182 184 182 159 170 199 184 183 176 165 159 139 158 144 180 188 180 173 160 151 139 128 128 109 93 72 30 346 314 328
180 178 176 180 181 178 173 171 170 170 172 178 176 178 185 183 164 172 200 201 190 183 176 172 156 145 149 166 205 186 153 157 158 152 142 130 115 94 83 64 35 359 346
173 175 176 177 176 174 170 172 173 167 170 178 181 179 183 179 173 172 184 206 216 187 180 174 150 144 147 150 156 127 129 163 169 166 160 149 135 108 82 70 64 58 38
171 174 176 174 173 173 175 174 174 176 181 185 188 190 190 184 169 161 168 175 191 184 160 117 126 142 146 144 143 148 164 177 176 179 177 161 140 117 102 91 82 77 63
175 176 176 176 175 176 177 179 181 185 190 194 195 194 193 189 185 174 169 162 159 164 157 136 132 134 146 133 148 162 178 175 184 183 173 148 137 136 140 144 149 160 120
179 177 177 179 177 178 179 183 190 194 196 196 198 196 194 201 193 181 181 181 180 175 164 164 167 166 169 172 171 167 171 172 174 176 166 162 164 157 148 157 228 237 259
182 180 180 180 179 179 175 170 122 171 162 180 190 199 197 181 159 167 173 163 155 157 165 177 183 185 187 185 183 181 181 184 185 181 177 180 183 188 188 192 218 245 264
188 183 181 181 179 180 178 178 176 145 136 169 179 182 177 159 157 162 159 154 155 161 179 190 191 192 193 191 189 187 188 186 184 184 188 191 194 200 203 208 218 238 261
190 183 182 183 183 183 183 184 183 181 180 184 180 169 163 160 162 160 152 147 159 180 195 195 195 191 190 191 191 190 186 181 184 187 193 196 198 204 210 213 222 244 256
189 186 186 183 182 184 182 181 182 184 181 175 166 158 155 151 150 156 162 176 180 186 193 195 195 193 190 188 187 186 183 182 183 185 191 195 196 198 205 215 224 221 254
188 181 183 182 181 182 180 179 181 183 181 178 177 169 158 158 164 168 181 191 190 192 194 194 193 191 189 185 182 182 182 182 184 190 191 192 194 199 203 213 225 235 248
183 180 179 183 184 182 181 183 184 185 184 183 180 169 168 175 178 180 185 193 196 194 192 191 186 183 185 182 182 184 185 187 187 190 191 187 186 192 199 207 218 230 249
183 181 186 187 184 183 181 183 184 183 183 181 171 163 168 179 179 183 186 191 193 191 187 182 184 182 182 182 183 184 184 184 183 181 179 178 179 184 192 204 213 227 239
185 183 184 183 182 175 179 181 181 182 181 180 174 169 176 182 179 181 182 183 181 176 171 169 170 170 168 168 174 181 183 183 184 180 179 180 185 187 193 200 206 222 239
186 183 181 179 178 180 183 183 182 182 182 180 178 176 178 179 177 176 176 171 167 167 165 165 167 168 166 162 163 170 172 172 173 173 172 172 177 179 182 192 202 212 223
182 180 179 178 178 180 182 182 181 181 181 180 179 176 175 175 174 172 171 167 165 166 166 165 164 167 169 167 163 158 152 154 160 161 161 166 171 177 182 186 199 212 222
179 177 176 175 177 179 179 180 180 180 180 180 179 176 174 174 174 172 171 169 168 167 165 164 163 162 162 162 159 154 151 151 152 158 162 162 170 176 181 186 190 203 211
Height
1535 1538 1540 1542 1544 1545 1547 1548 1550 1551 1553 1554 1555 1557 1558 1559 1559 1559 1560 1560 1561 1561 1561 1562 1562 1562 1562 1563 1563 1563 1563 1564 1565 1565 1565 1564 1564 1563 1563 1562 1561 1560 1558
1534 1536 1539 1541 1542 1544 1546 1547 1549 1550 1552 1554 1555 1556 1557 1558 1559 1559 1560 1560 1561 1561 1562 1562 1562 1562 1562 1563 1563 1564 1564 1564 1565 1565 1565 1565 1564 1564 1563 1562 1562 1561 1559
1532 1534 1537 1539 1541 1543 1545 1546 1548 1549 1551 1553 1554 1555 1557 1557 1558 1559 1560 1560 1561 1561 1562 1562 1562 1563 1563 1563 1563 1564 1564 1564 1564 1565 1565 1565 1565 1564 1563 1563 1562 1562 1561
1529 1532 1534 1537 1539 1541 1543 1545 1546 1548 1549 1551 1553 1554 1556 1557 1558 1559 1560 1560 1561 1561 1562 1562 1563 1563 1563 1564 1564 1564 1564 1564 1564 1565 1565 1565 1565 1564 1564 1563 1563 1562 1561
1527 1530 1532 1535 1537 1539 1541 1543 1545 1547 1548 1550 1552 1553 1555 1556 1557 1559 1560 1560 1561 1561 1562 1562 1562 1563 1563 1563 1564 1564 1564 1564 1564 1565 1565 1565 1565 1564 1564 1563 1563 1562 1561
1525 1528 1530 1533 1535 1537 1539 1541 1543 1545 1547 1548 1550 1552 1554 1555 1556 1557 1559 1560 1561 1561 1562 1562 1562 1562 1563 1563 1563 1563 1564 1564 1565 1565 1565 1565 1564 1564 1563 1563 1563 1562 1561
1523 1526 1528 1530 1533 1535 1537 1539 1541 1543 1545 1547 1549 1551 1552 1554 1555 1557 1558 1559 1560 1561 1562 1562 1562 1562 1563 1563 1563 1563 1563 1564 1564 1564 1564 1564 1564 1563 1562 1562 1561 1561 1560
1521 1523 1526 1528 1530 1533 1535 1537 1539 1541 1543 1545 1547 1549 1551 1552 1554 1555 1557 1558 1559 1560 1561 1561 1562 1562 1562 1563 1563 1563 1563 1563 1563 1563 1563 1563 1562 1562 1561 1561 1560 1560 1559
1518 1521 1523 1526 1528 1530 1533 1535 1537 1539 1541 1543 1545 1547 1549 1551 1552 1554 1555 1557 1558 1559 1559 1560 1561 1561 1561 1562 1562 1562 1562 1562 1562 1562 1562 1561 1561 1560 1560 1560 1559 1559 1559
1515 1518 1521 1523 1526 1528 1531 1533 1535 1537 1539 1541 1543 1545 1547 1549 1551 1552 1554 1555 1556 1557 1558 1558 1559 1560 1560 1560 1561 1561 1561 1561 1561 1561 1561 1560 1560 1559 1559 1558 1558 1558 1557
1513 1516 1518 1521 1524 1526 1529 1531 1533 1535 1537 1540 1541 1543 1545 1547 1549 1550 1552 1554 1555 1555 1556 1557 1557 1558 1558 1558 1559 1560 1560 1560 1560 1560 1560 1559 1559 1558 1557 1557 1556 1555 1555
1510 1513 1516 1518 1521 1524 1526 1528 1531 1533 1535 1537 1539 1541 1543 1544 1546 1547 1549 1551 1552 1553 1554 1555 1555 1556 1556 1557 1557 1557 1558 1558 1558 1558 1558 1558 1557 1557 1556 1555 1554 1554 1553
1508 1510 1513 1516 1518 1521 1523 1526 1528 1530 1532 1534 1536 1538 1540 1542 1543 1544 1546 1548 1549 1551 1551 1552 1553 1554 1554 1555 1555 1555 1556 1556 1556 1556 1556 1556 1555 1555 1554 1553 1553 1552 1551
1505 1508 1510 1513 1515 1518 1520 1523 1525 1527 1529 1531 1533 1535 1537 1538 1540 1541 1543 1545 1546 1547 1549 1550 1551 1551 1552 1553 1553 1553 1553 1554 1554 1554 1554 1554 1553 1553 1552 1551 1550 1550 1549
1502 1505 1507 1510 1512 1514 1517 1519 1522 1524 1526 1528 1530 1532 1533 1535 1536 1538 1539 1541 1543 1544 1546 1547 1548 1549 1549 1550 1550 1551 1551 1551 1551 1551 1551 1551 1551 1550 1550 1549 1548 1548 1547
1499 1501 1504 1506 1509 1511 1513 1516 1518 1521 1523 1525 1527 1529 1530 1532 1533 1534 1536 1538 1540 1541 1543 1543 1544 1545 1546 1547 1547 1548 1548 1548 1548 1549 1548 1548 1548 1548 1547 1546 1546 1545 1544
1495 1497 1500 1502 1505 1507 1510 1512 1514 1517 1519 1521 1523 1525 1526 1528 1529 1531 1533 1535 1536 1537 1539 1540 1541 1542 1542 1543 1544 1544 1545 1545 1545 1545 1545 1545 1545 1544 1544 1543 1543 1542 1541
1492 1494 1496 1498 1501 1503 1506 1508 1510 1512 1514 1516 1518 1520 1522 1524 1526 1527 1529 1531 1532 1533 1534 1536 1537 1538 1538 1539 1540 1541 1541 1541 1541 1541 1541 1541 1541 1541 1541 1540 1539 1539 1538
1488 1490 1492 1495 1497 1500 1502 1504 1506 1509 1510 1512 1514 1516 1518 1520 1522 1524 1525 1526 1527 1529 1530 1531 1533 1534 1534 1535 1536 1537 1537 1537 1537 1537 1537 1537 1537 1537 1537 1536 1536 1535 1535
1484 1486 1488 1491 1493 1496 1498 1500 1502 1504 1506 1508 1510 1511 1513 1515 1517 1518 1520 1522 1523 1525 1526 1527 1528 1529 1530 1531 1532 1532 1533 1533 1533 1533 1533 1533 1533 1533 1533 1532 1532 1532 1531
1479 1482 1484 1487 1489 1492 1494 1496 1498 1500 1502 1504 1506 1507 1509 1511 1513 1514 1516 1517 1519 1521 1522 1523 1524 1525 1526 1527 1527 1528 1528 1529 1529 1529 1529 1529 1529 1529 1529 1529 1528 1528 1528
1475 1477 1480 1483 1485 1487 1489 1492 1494 1496 1498 1500 1502 1503 1506 1507 1509 1510 1512 1513 1515 1516 1518 1519 1520 1521 1522 1523 1523 1524 1524 1524 1525 1525 1525 1525 1525 1525 1525 1525 1525 1524 1524
1471 1473 1476 1479 1481 1483 1486 1488 1490 1492 1494 1496 1498 1499 1501 1503 1505 1507 1508 1509 1511 1512 1513 1515 1516 1516 1517 1518 1519 1520 1520 1520 1521 1521 1521 1521 1521 1521 1521 1521 1521 1520 1520
1467 1469 1472 1474 1476 1479 1481 1484 1486 1488 1490 1492 1494 1496 1497 1499 1501 1503 1504 1506 1507 1508 1509 1511 1512 1512 1513 1514 1515 1515 1516 1516 1516 1517 1517 1517 1517 1517 1517 1517 1516 1516 1516
1463 1465 1467 1470 1472 1475 1477 1480 1482 1484 1486 1488 1490 1492 1494 1496 1497 1499 1501 1502 1503 1504 1506 1507 1508 1509 1509 1510 1511 1511 1512 1513 1513 1513 1513 1513 1513 1513 1513 1513 1513 1513 1513
1459 1461 1463 1465 1468 1470 1473 1475 1477 1480 1482 1484 1486 1488 1490 1491 1493 1495 1497 1498 1500 1501 1502 1503 1504 1505 1506 1506 1507 1508 1508 1509 1509 1509 1510 1510 1510 1510 1510 1510 1510 1510 1510